Photometre #354[Standard_N] Mount_Chacaltaya AOT

File : 20210609_354.hum

09/06/2021,11:38:20,TEMP=-5.4,BA=5.60,STAT.A=Abs.,ExtBa=12.54
09/06/2021,11:41:18,TEMP=-5.2,BA=5.48,STAT.A=Abs.,ExtBa=12.49
09/06/2021,11:44:48,TEMP=-5.0,BA=5.48,STAT.A=Abs.,ExtBa=12.46
09/06/2021,11:48:56,TEMP=-5.0,BA=5.48,STAT.A=Abs.,ExtBa=12.45
09/06/2021,11:53:57,TEMP=-5.0,BA=5.56,STAT.A=Abs.,ExtBa=12.46
09/06/2021,12:08:46,TEMP=-4.2,BA=5.64,STAT.A=Abs.,ExtBa=12.51
09/06/2021,12:11:46,TEMP=-3.7,BA=5.60,STAT.B=Abs.,ExtBa=12.47
09/06/2021,12:14:46,TEMP=-3.5,BA=5.60,STAT.A=Abs.,ExtBa=12.46
09/06/2021,12:17:53,TEMP=-3.5,BA=5.60,STAT.A=Abs.,ExtBa=12.43
09/06/2021,12:20:54,TEMP=-3.4,BA=5.64,STAT.A=Abs.,ExtBa=12.44
09/06/2021,12:26:02,TEMP=-3.4,BA=5.64,STAT.A=Abs.,ExtBa=12.47
09/06/2021,12:32:13,TEMP=-3.4,BA=5.64,STAT.C=Abs.,ExtBa=12.53
09/06/2021,12:39:25,TEMP=-3.2,BA=5.64,STAT.A=Abs.,ExtBa=12.56
09/06/2021,12:47:54,TEMP=-3.0,BA=5.64,STAT.A=Abs.,ExtBa=12.59
09/06/2021,12:58:04,TEMP=-2.8,BA=5.64,STAT.A=Abs.,ExtBa=12.61
09/06/2021,13:10:33,TEMP=-2.8,BA=5.64,STAT.A=Abs.,ExtBa=12.61
09/06/2021,13:26:18,TEMP=-2.4,BA=5.64,STAT.B=Abs.,ExtBa=12.92
09/06/2021,13:34:31,TEMP=-1.8,BA=5.64,STAT.F,ExtBa=12.57
09/06/2021,13:47:00,TEMP=-1.2,BA=5.68,STAT.D=Abs.,ExtBa=13.17
09/06/2021,14:02:00,TEMP=-0.9,BA=5.64,STAT.D=Abs.,ExtBa=13.21
09/06/2021,14:17:00,TEMP=-0.4,BA=5.64,STAT.D=Abs.,ExtBa=13.50
09/06/2021,14:32:02,TEMP=0.2,BA=5.84,STAT.F,ExtBa=13.88
09/06/2021,14:47:00,TEMP=1.8,BA=5.84,STAT.D=Abs.,ExtBa=13.98
09/06/2021,15:02:00,TEMP=2.4,BA=5.84,STAT.D=Abs.,ExtBa=13.99
09/06/2021,15:17:01,TEMP=2.5,BA=5.84,STAT.D=Abs.,ExtBa=14.08
09/06/2021,15:32:02,TEMP=3.1,BA=5.80,STAT.F,ExtBa=14.17
09/06/2021,15:47:01,TEMP=3.8,BA=5.64,STAT.D=Abs.,ExtBa=14.12
09/06/2021,16:02:01,TEMP=3.6,BA=5.76,STAT.D=Abs.,ExtBa=14.27
09/06/2021,16:17:01,TEMP=3.9,BA=5.76,STAT.D=Abs.,ExtBa=14.34
09/06/2021,16:32:03,TEMP=4.0,BA=5.72,STAT.F,ExtBa=14.37
09/06/2021,16:47:01,TEMP=4.0,BA=5.68,STAT.D=Abs.,ExtBa=14.37
09/06/2021,17:02:01,TEMP=4.3,BA=5.72,STAT.D=Abs.,ExtBa=14.39
09/06/2021,17:17:01,TEMP=4.6,BA=5.68,STAT.D=Abs.,ExtBa=14.39
09/06/2021,17:32:02,TEMP=4.8,BA=5.68,STAT.F,ExtBa=14.17
09/06/2021,17:56:51,TEMP=5.0,BA=5.64,STAT.b=Abs.
09/06/2021,18:10:05,TEMP=6.0,BA=5.64,STAT.D=Abs.,ExtBa=14.10
09/06/2021,18:24:50,TEMP=5.5,BA=5.64,STAT.D=Abs.,ExtBa=13.97
09/06/2021,18:32:02,TEMP=5.6,BA=5.68,STAT.F,ExtBa=14.34
09/06/2021,18:47:00,TEMP=5.6,BA=5.64,STAT.D=Abs.,ExtBa=14.16
09/06/2021,19:02:00,TEMP=4.4,BA=5.68,STAT.D=Abs.,ExtBa=14.35
09/06/2021,19:17:00,TEMP=4.7,BA=5.64,STAT.D=Abs.,ExtBa=14.24
09/06/2021,19:32:01,TEMP=4.8,BA=5.68,STAT.F,ExtBa=14.32
09/06/2021,19:43:39,TEMP=5.2,BA=5.64,STAT.B=Abs.,ExtBa=14.13
09/06/2021,19:53:29,TEMP=5.1,BA=5.68,STAT.A=Abs.,ExtBa=14.30
09/06/2021,20:05:58,TEMP=5.2,BA=5.68,STAT.A=Abs.,ExtBa=14.31
09/06/2021,20:16:08,TEMP=5.4,BA=5.68,STAT.A=Abs.,ExtBa=14.29
09/06/2021,20:24:37,TEMP=5.2,BA=5.64,STAT.A=Abs.,ExtBa=14.28
09/06/2021,20:31:49,TEMP=5.1,BA=5.64,STAT.C=Abs.,ExtBa=14.26
09/06/2021,20:43:39,TEMP=5.1,BA=5.64,STAT.A=Abs.,ExtBa=13.82
09/06/2021,20:46:41,TEMP=5.1,BA=5.64,STAT.A=Abs.,ExtBa=13.95
09/06/2021,20:49:42,TEMP=5.2,BA=5.64,STAT.A=Abs.,ExtBa=14.04
09/06/2021,20:52:42,TEMP=5.2,BA=5.64,STAT.A=Abs.,ExtBa=14.12
09/06/2021,20:56:04,TEMP=5.1,BA=5.64,STAT.B=Abs.,ExtBa=14.14
09/06/2021,21:04:02,TEMP=4.8,BA=5.64,STAT.A=Abs.,ExtBa=13.72
09/06/2021,21:10:05,TEMP=4.5,BA=5.64,STAT.A=Abs.,ExtBa=14.02
09/06/2021,21:15:04,TEMP=4.6,BA=5.64,STAT.A=Abs.,ExtBa=14.09
09/06/2021,21:19:14,TEMP=4.7,BA=5.64,STAT.A=Abs.,ExtBa=14.08
09/06/2021,21:22:44,TEMP=4.6,BA=5.64,STAT.A=Abs.,ExtBa=14.05
09/06/2021,21:25:53,TEMP=4.6,BA=5.64,STAT.A=Abs.,ExtBa=13.95